CZ-6A DEB

Satellite information

Favourite Embed

Satellite Type and Status

DEBRISIN ORBIT

Key statistics

Satellite CZ-6A DEB at a glance.

Uptime

495

Days in orbit

Revolutions

≈ 15.6

Per day

Orbit

LEO

Low Earth Orbit

Inclination

88.9

Latest

Satellite identification and parameters

Extended collection of information and parameters for CZ-6A DEB.

Object identification

Identified? True

Debris? True

Object name: CZ-6A DEB

International designator: 2024-140KS

Object number (NORAD): 60887

Object ID (CCSDS): 60887

Country: PEOPLES REPUBLIC OF CHINA (PRC)

Current information (Y/N): Y

RCS size: MEDIUM

Orbital parameters

Period: 92.547 minutes

Inclination: 88.9275 deg

SMA: 6777.475 km

Apoapsis: 439.291 km

Periapsis: 359.388 km

RAAN: 284.741 deg

Eccentricy: 0.00589471

Argument of periapsis: 61.6856 deg

Mean anomaly: 299.0338 deg

Mean motion: 15.55968872 rev/day

Mean motion (dot): 0.00518883 rev/day2

B* drag term: 0.0065428322 1/REarth

Two-line elements (TLE)

Creation date: Dec. 13, 2025, 5:47 p.m.

Reference frame: TEME

Reference center: EARTH

Epoch: Dec. 13, 2025, 2:09 a.m. UTC

TLE line 0: 0 CZ-6A DEB

TLE line 1: 1 60887U 24140KS 25347.09026598 .00518883 00000-0 65428-2 0 9990

TLE line 2: 2 60887 88.9275 284.7410 0058947 61.6856 299.0338 15.55968872 72268

Live tracking on map

Real-time ground track for satellite CZ-6A DEB.

In-orbit conjunctions

A list of the most updated potential collisions computed for object CZ-6A DEB.

Target Orbit TCA Probability of collision Miss distance Type
DELTA 1 DEB SSO 2025-02-28 14:32:09 0.0002738451 881.0 (m) DEBRIS
IRIDIUM 33 DEB LEO 2025-01-11 15:20:33 0.000212899 188.0 (m) DEBRIS
NOAA 12 DEB SSO 2025-01-05 07:52:22 0.0003656307 702.0 (m) DEBRIS

Associated space launch

18 Low Earth Orbit communication satellites with Ku, Q and V band payloads for the G60 constellation operated by Shanghai Spacecom Satellite Technology (SSST) with funding backed by the Shanghai local government. Initial constellation will consist of 1296 satellites by 2027 with long term plans to expand it to 12000 satellites.

CZ-6A DEB was lifted into orbit during the mission ‘Long March 6A | G60 Polar Group 01’, on board a Long March 6A space rocket.

The launch took place on Aug. 6, 2024, 6:42 a.m. from Launch Complex 9A.

For more information about the launch, click the button.

Launch to space Long March 6A | G60 Polar Group 01
Long March 6A | G60 Polar Group 01

Agency: N/A

Status: Launch Successful

Launch date: Aug. 6, 2024, 6:42 a.m. UTC

Rocket: Long March 6A

Launch pad: Launch Complex 9A

Location: Taiyuan Satellite Launch Center, People's Republic of China

...

Latest news about this satellite

News about space launch
Brightness of first Chinese broadband constellation satellites alarms astronomers

The first satellites of a Chinese broadband constellation are significantly brighter than those of Western systems, posing a new challenge for astronomers.

News about space launch
Chinese rocket stage breaks up into cloud of more than 700 pieces of space debris

HELSINKI — A Chinese Long March 6A rocket’s upper stage has fragmented into a cloud of over 700 pieces of space debris, adding to concerns about long-term orbital safety. China […]

News about space launch
China's Thousand Sails Megaconstellation Kicks Off with Dangerous Debris Field

China's Thousand Sails Megaconstellation Kicks Off with Dangerous Debris Field


Newsletter sign-up

Weekly statistics, charts and insights to help you stay on top of the space industry.